TimeAKST,TemperatureF,Dew PointF,Humidity,Sea Level PressureIn,VisibilityMPH,Wind Direction,Wind SpeedMPH,Gust SpeedMPH,PrecipitationIn,Events,Conditions,WindDirDegrees,DateUTC
12:53 AM,-20.9,-27.0,73,30.05,7.0,NE,12.7,-,N/A,,Overcast,50,2013-02-14 09:53:00
1:42 AM,-22.0,-29.2,69,30.05,10.0,ENE,10.4,-,N/A,,Scattered Clouds,60,2013-02-14 10:42:00
1:53 AM,-23.1,-29.9,70,30.06,10.0,ENE,10.4,-,N/A,,Partly Cloudy,60,2013-02-14 10:53:00
2:53 AM,-22.0,-29.0,70,30.05,7.0,NE,12.7,-,N/A,,Clear,50,2013-02-14 11:53:00
3:53 AM,-22.0,-27.9,74,30.03,7.0,NE,16.1,-,N/A,,Clear,50,2013-02-14 12:53:00
4:53 AM,-26.0,-33.0,69,30.04,10.0,East,9.2,-,N/A,,Clear,80,2013-02-14 13:53:00
5:53 AM,-25.1,-31.0,74,30.01,10.0,ENE,12.7,-,N/A,,Clear,60,2013-02-14 14:53:00
6:53 AM,-23.1,-29.0,74,30.00,2.5,ENE,15.0,-,N/A,,Clear,60,2013-02-14 15:53:00
7:53 AM,-22.0,-29.0,70,30.00,3.0,NE,16.1,-,N/A,,Clear,50,2013-02-14 16:53:00
8:53 AM,-22.0,-27.9,74,29.99,3.0,NE,15.0,-,N/A,,Clear,50,2013-02-14 17:53:00
9:53 AM,-20.9,-27.9,70,29.99,3.0,NE,16.1,-,N/A,,Mostly Cloudy,50,2013-02-14 18:53:00
10:53 AM,-20.9,-27.9,70,29.97,3.0,NE,16.1,-,N/A,,Overcast,50,2013-02-14 19:53:00
11:53 AM,-20.0,-26.0,74,29.97,3.0,ENE,15.0,-,N/A,,Overcast,60,2013-02-14 20:53:00
12:40 PM,-18.4,-25.6,70,29.96,2.0,ENE,13.8,-,N/A,,Overcast,60,2013-02-14 21:40:00
12:53 PM,-18.0,-25.1,70,29.96,2.0,ENE,15.0,-,N/A,,Overcast,60,2013-02-14 21:53:00
1:53 PM,-16.1,-22.0,74,29.94,2.0,ENE,17.3,-,N/A,,Overcast,60,2013-02-14 22:53:00
2:53 PM,-15.0,-20.9,75,29.91,2.0,ENE,19.6,-,N/A,,Overcast,60,2013-02-14 23:53:00
3:07 PM,-14.8,-20.2,77,29.90,2.0,ENE,19.6,-,N/A,,Overcast,60,2013-02-15 00:07:00
3:53 PM,-15.0,-20.9,75,29.90,2.0,NE,18.4,-,N/A,,Overcast,50,2013-02-15 00:53:00
4:40 PM,-14.8,-20.2,77,29.87,2.0,NE,18.4,-,N/A,,Overcast,50,2013-02-15 01:40:00
4:53 PM,-14.1,-20.9,71,29.87,2.0,NE,19.6,-,N/A,,Overcast,50,2013-02-15 01:53:00
5:53 PM,-14.1,-20.0,75,29.86,1.5,NE,23.0,-,N/A,Snow,Light Snow,50,2013-02-15 02:53:00
6:26 PM,-13.0,-20.2,70,29.85,2.0,ENE,21.9,-,N/A,,Overcast,60,2013-02-15 03:26:00
6:40 PM,-13.0,-20.2,70,29.84,1.8,NE,20.7,-,N/A,,Overcast,50,2013-02-15 03:40:00
6:53 PM,-13.0,-18.9,75,29.85,1.2,NE,21.9,-,N/A,,Overcast,50,2013-02-15 03:53:00
7:53 PM,-13.0,-18.9,75,29.85,1.5,NE,19.6,-,N/A,,Overcast,50,2013-02-15 04:53:00
8:53 PM,-13.0,-18.9,75,29.86,1.8,NE,19.6,-,N/A,,Overcast,50,2013-02-15 05:53:00
9:53 PM,-13.0,-18.9,75,29.85,1.5,NE,19.6,-,N/A,,Overcast,40,2013-02-15 06:53:00
10:42 PM,-13.0,-20.2,70,29.85,2.0,NE,19.6,-,N/A,,Overcast,40,2013-02-15 07:42:00
10:53 PM,-13.0,-20.0,71,29.87,2.0,NE,16.1,-,N/A,,Overcast,40,2013-02-15 07:53:00
11:14 PM,-13.0,-20.2,70,29.87,1.8,NE,18.4,-,N/A,,Overcast,40,2013-02-15 08:14:00
11:33 PM,-13.0,-20.2,70,29.87,2.0,NE,18.4,-,N/A,,Overcast,40,2013-02-15 08:33:00
11:53 PM,-13.0,-20.0,71,29.90,2.5,NE,16.1,-,N/A,,Overcast,50,2013-02-15 08:53:00